Wautoma, WI

12:42 PM CDT on May 29, 2017 (GMT -0500)
Wautoma

Weather History for KY50 - November, 2011

Change the Weather History Date:

Tuesday, November 22, 2011

  Actual Average (KPCZ) Record (KPCZ)
Temperature  
Mean Temperature 32 °F -  
Max Temperature 41 °F 39 °F 64 °F (1990)
Min Temperature 22 °F 24 °F 5 °F (1964)
Degree Days  
Heating Degree Days 34    
Moisture  
Dew Point 28 °F    
Average Humidity 90    
Maximum Humidity 100    
Minimum Humidity 70    
Precipitation  
Precipitation 0.00 in - - ()
Sea Level Pressure  
Sea Level Pressure 30.15 in    
Wind  
Wind Speed 3 mph (NE)    
Max Wind Speed 12 mph    
Max Gust Speed -    
Visibility 7 miles    
Events      
Averages and records for this station are not official NWS values.
T = Trace of Precipitation, MM = Missing Value Source: NWS Daily Summary

Daily Weather History Graph

Daily Weather History Graph

Search for Another Location

Airport or City:

Trip Planner

Search our weather history database for the weather conditions in past years. The results will help you decide how hot, cold, wet, or windy it might be!

Date:

Astronomy

Nov. 22, 2011 Rise Set
Actual Time 7:00 AM CST 4:25 PM CST
Civil Twilight 6:29 AM CST 4:56 PM CST
Nautical Twilight 5:53 AM CST 5:32 PM CST
Astronomical Twilight 5:19 AM CST 6:06 PM CST
Moon 3:47 AM CST (11/22) 2:27 PM CST (11/22)
Length of Visible Light 10h 27m
Length of Day
9h 24m
Waning Crescent, 9% of the Moon is Illuminated
Nov 22
Waning Crescent
Nov 25
New
Dec 2
First Quarter
Dec 10
Full
Dec 17
Last Quarter

Hourly Weather History & Observations

Time (CST) Temp. Windchill Dew Point Humidity Pressure Visibility Wind Dir Wind Speed Gust Speed Precip Events Conditions
12:56 AM 22.1 °F - 21.0 °F 96% 30.30 in 7.0 mi Calm Calm - N/A   Clear
1:38 AM 24.8 °F - 24.8 °F 100% 30.26 in 4.0 mi Calm Calm - N/A   Mostly Cloudy
1:56 AM 27.1 °F - 26.1 °F 96% 30.28 in 5.0 mi Calm Calm - N/A   Overcast
2:04 AM 26.6 °F - 26.6 °F 100% 30.24 in 6.0 mi Calm Calm - N/A   Overcast
2:56 AM 30.0 °F 24.1 °F 28.0 °F 92% 30.26 in 8.0 mi NE 5.8 mph - N/A   Overcast
3:56 AM 29.1 °F 23.0 °F 27.1 °F 92% 30.24 in 8.0 mi NE 5.8 mph - N/A   Overcast
4:08 AM 28.4 °F 23.3 °F 26.6 °F 93% 30.21 in 8.0 mi NNE 4.6 mph - N/A   Overcast
4:56 AM 30.0 °F 24.1 °F 28.0 °F 92% 30.21 in 7.0 mi NE 5.8 mph - N/A   Overcast
5:56 AM 30.0 °F 24.1 °F 28.0 °F 92% 30.21 in 8.0 mi NE 5.8 mph - N/A   Overcast
6:06 AM 30.2 °F 25.4 °F 28.4 °F 93% 30.19 in 8.0 mi NE 4.6 mph - N/A   Overcast
6:56 AM 31.1 °F 27.7 °F 29.1 °F 92% 30.21 in 8.0 mi NE 3.5 mph - N/A   Overcast
8:45 AM 32.0 °F 24.8 °F 30.2 °F 93% 30.16 in 8.0 mi NE 8.1 mph - N/A   Mostly Cloudy
8:56 AM 32.9 °F 27.5 °F 30.0 °F 89% 30.18 in 8.0 mi NE 5.8 mph - N/A   Scattered Clouds
9:56 AM 36.9 °F 29.1 °F 32.0 °F 83% 30.14 in 9.0 mi NNE 11.5 mph - N/A   Clear
10:56 AM 39.9 °F 33.4 °F 32.9 °F 76% 30.12 in 10.0 mi ENE 10.4 mph - N/A   Scattered Clouds
11:56 AM 41.0 °F 35.8 °F 32.0 °F 70% 30.09 in 10.0 mi East 8.1 mph - N/A   Scattered Clouds
1:56 PM 39.9 °F 35.1 °F 32.0 °F 73% 30.03 in 10.0 mi ENE 6.9 mph - N/A   Overcast
2:56 PM 39.9 °F 35.8 °F 32.0 °F 73% 30.01 in 10.0 mi ENE 5.8 mph - N/A   Overcast
4:56 PM 38.8 °F - 32.0 °F 76% 30.04 in 10.0 mi Calm Calm - N/A   Overcast
7:56 PM 32.9 °F - 30.0 °F 89% 30.06 in 10.0 mi Calm Calm - N/A   Clear
8:56 PM 31.1 °F - 29.1 °F 92% 30.07 in 10.0 mi Calm Calm - N/A   Clear
9:56 PM 26.1 °F - 25.2 °F 96% 30.08 in 8.0 mi Calm Calm - N/A   Clear
10:56 PM 23.0 °F - 21.0 °F 92% 30.09 in 6.0 mi Calm Calm - N/A   Clear
11:36 PM 24.8 °F - 23.0 °F 93% 30.07 in 1.8 mi Calm Calm - N/A   Clear
11:41 PM 24.8 °F - 24.8 °F 100% 30.07 in 1.0 mi Calm Calm - N/A   Clear
11:46 PM 23.0 °F - 23.0 °F 100% 30.07 in 1.5 mi Calm Calm - N/A   Clear